Theta_e
347 355 364 367 368 366 362 363 363 363 365 366 365 366 364 364 363 363 363 362 362 362 362 361 362 363 361 358 362 363 361 362 362 362 362 361 360 359 358 359 360 356 361
351 358 367 368 369 368 364 366 365 365 365 365 365 364 364 363 363 363 362 362 362 363 361 362 362 361 362 361 359 361 363 363 362 362 361 361 360 359 358 360 360 357 360
351 358 362 367 368 367 367 367 365 365 366 361 362 364 364 363 362 362 363 363 361 363 362 361 362 361 361 362 361 361 358 361 363 362 361 354 355 358 360 360 360 358 358
352 353 361 366 367 366 367 366 366 363 364 363 365 364 364 364 363 363 364 362 362 363 361 361 361 361 360 360 361 360 360 359 350 348 350 353 352 358 361 358 358 358 359
349 352 360 368 368 366 365 365 367 365 365 364 362 364 362 362 363 362 363 363 362 362 362 361 362 361 360 359 360 358 359 360 351 343 345 349 349 356 359 360 360 360 358
352 356 365 368 367 367 365 366 365 365 366 366 365 363 363 364 364 363 363 361 361 361 361 361 362 362 361 360 359 357 355 355 356 352 352 355 352 359 359 359 359 360 360
354 358 360 367 368 367 367 364 366 365 365 365 364 365 363 361 363 364 363 361 358 358 359 361 362 361 359 356 355 354 353 355 355 353 352 351 354 363 359 359 359 359 358
355 357 359 367 368 369 365 364 367 365 365 365 363 362 362 364 363 363 362 361 359 355 356 358 358 360 360 357 353 354 356 357 351 343 351 352 358 363 360 359 359 359 359
356 355 356 360 361 365 367 364 366 363 361 363 363 364 364 360 361 361 360 361 361 359 358 356 357 358 359 359 356 355 355 357 353 343 344 352 360 361 360 359 359 359 359
350 354 353 354 357 357 359 364 364 367 364 364 364 362 364 364 362 360 361 360 359 360 360 360 359 359 360 360 359 358 357 357 350 351 351 353 362 362 360 360 359 359 359
349 349 355 355 354 352 353 358 363 364 364 361 361 362 362 352 352 351 357 355 352 353 356 358 358 358 359 360 360 360 359 350 346 350 351 357 360 363 362 360 359 359 359
345 347 350 353 355 351 354 354 354 355 354 355 355 353 354 352 352 355 355 355 349 351 352 354 355 356 357 352 352 357 350 348 342 347 351 359 361 361 360 360 361 360 360
342 347 347 348 349 350 351 353 354 354 353 355 352 354 354 355 353 352 347 348 345 351 348 348 350 351 348 347 346 347 350 348 341 345 350 357 363 362 360 361 360 361 360
338 340 344 345 345 346 352 351 352 352 351 351 349 354 355 352 350 350 348 348 346 344 343 348 348 347 347 347 346 349 349 348 346 346 348 357 358 362 363 361 360 361 360
336 338 343 344 346 349 351 350 349 350 351 351 345 353 356 352 349 350 349 350 348 346 346 349 347 346 348 348 348 347 346 349 349 348 349 355 358 357 363 362 361 360 360
335 336 345 347 348 347 346 350 348 349 353 351 350 352 355 354 351 353 350 350 352 351 349 346 347 349 350 349 347 347 348 348 347 348 349 351 360 357 360 362 363 363 363
336 342 341 345 347 347 347 350 347 347 347 350 351 353 356 354 353 351 351 350 351 351 349 349 347 348 349 350 350 350 350 350 348 347 348 349 351 360 360 361 362 363 364
342 344 343 346 349 350 350 350 351 347 347 351 352 357 357 355 355 352 350 350 351 353 353 350 350 349 345 348 349 349 349 348 349 351 348 350 350 352 357 361 361 360 364
343 342 339 342 347 354 355 355 352 353 352 352 354 354 355 357 358 354 352 353 354 354 354 351 348 349 345 344 347 349 348 345 345 349 349 348 349 352 350 357 360 360 360
343 343 343 343 340 352 349 355 355 355 356 356 355 352 355 352 356 353 353 353 352 352 351 350 349 349 349 344 350 350 347 345 344 345 347 350 347 348 350 352 354 353 359
344 341 341 343 341 351 353 350 349 349 353 353 353 351 351 353 355 351 350 352 352 350 349 352 348 347 346 348 344 344 345 347 345 345 350 349 349 350 349 351 351 351 353
340 344 344 343 345 346 355 353 354 352 351 352 351 351 350 350 348 347 348 350 351 350 349 351 348 346 348 346 341 337 336 340 346 347 347 349 349 349 349 350 351 353 352
343 346 345 343 348 352 356 356 354 351 350 344 343 346 349 348 349 349 348 350 352 351 349 349 348 345 344 345 346 340 333 332 339 344 345 345 348 348 349 349 349 352 353
348 351 348 347 360 356 357 354 350 347 344 348 343 349 350 348 347 352 353 353 350 350 348 349 352 349 345 342 343 348 345 342 333 330 342 343 346 347 347 347 349 350 352
355 356 359 360 359 359 353 354 350 348 349 351 352 345 350 354 353 355 352 349 347 347 349 348 348 347 348 346 344 342 344 344 343 336 332 340 341 345 349 350 350 349 349
353 355 358 357 357 356 355 356 350 348 347 348 347 344 348 347 348 350 351 350 350 350 349 350 348 347 346 347 347 346 343 339 340 339 336 336 338 341 345 348 347 349 348
Wind_Speed
9 10 13 14 18 16 16 15 13 14 12 15 15 15 15 15 16 14 12 12 12 11 11 11 11 11 11 12 12 14 13 13 14 15 15 15 13 11 12 14 16 12 15
17 12 14 16 18 16 15 14 14 13 13 14 14 14 14 14 13 13 12 11 11 12 11 11 11 10 10 11 12 11 12 12 12 14 14 13 11 8 9 14 15 13 14
17 13 13 16 18 17 15 14 14 14 13 13 13 13 13 13 12 12 11 14 11 12 13 11 10 9 9 10 10 10 11 9 10 13 14 5 5 12 15 16 15 15 13
17 12 12 17 17 17 15 14 14 14 12 13 13 13 13 13 13 14 13 12 12 12 12 12 11 9 9 8 8 7 10 13 8 3 4 2 8 11 13 14 14 14 14
15 13 13 17 17 16 15 14 14 12 13 13 13 13 13 12 13 12 13 12 11 12 11 10 12 8 7 7 6 5 7 13 7 3 3 3 5 9 12 13 13 14 13
16 14 15 17 18 16 16 13 13 14 13 13 12 12 12 12 13 12 11 11 10 9 10 10 10 10 7 5 4 4 3 0 3 4 1 9 7 11 11 13 12 14 13
16 14 13 17 16 15 16 13 11 13 14 12 11 11 11 11 11 12 11 10 9 8 8 8 10 8 7 4 2 2 2 4 6 3 4 5 6 11 10 11 12 12 13
18 14 12 16 16 15 14 11 11 13 13 10 10 10 10 10 10 10 9 8 8 7 6 6 6 7 5 3 2 5 5 6 6 6 6 2 10 14 12 11 11 11 12
18 14 10 10 13 16 13 12 12 12 12 9 8 8 9 9 9 9 9 9 7 6 6 6 5 6 5 4 3 5 6 6 3 3 5 4 12 13 13 12 11 11 10
15 13 11 8 7 7 7 12 10 10 11 11 9 8 9 10 9 7 5 7 6 6 6 6 6 6 7 7 6 7 6 6 5 3 4 4 12 15 14 12 12 12 12
15 12 11 11 9 8 7 8 10 11 11 11 10 11 7 4 6 7 6 7 7 6 6 6 6 7 8 9 10 10 9 3 4 3 2 10 13 16 16 14 12 12 11
17 16 13 12 12 11 10 7 7 7 4 5 6 6 5 5 6 6 7 9 8 8 8 8 8 9 9 4 4 11 3 4 4 4 5 13 13 16 15 15 13 13 13
18 15 16 15 13 14 9 7 5 4 4 5 7 7 5 4 4 4 3 3 3 7 2 4 6 4 6 5 4 4 5 5 3 4 8 19 19 17 18 17 16 14 13
15 15 17 16 12 10 9 8 8 6 6 6 5 7 6 3 4 4 3 4 3 2 4 4 3 4 5 6 5 5 6 5 3 4 7 16 16 19 19 19 19 18 16
8 8 13 15 10 10 8 5 5 8 8 6 5 5 6 6 5 4 4 3 4 4 4 4 4 4 5 6 6 7 7 7 9 4 4 16 20 19 19 21 20 20 19
8 7 10 10 8 8 6 5 1 3 8 6 6 8 9 7 5 5 5 5 4 3 3 4 4 4 5 4 5 6 6 7 7 6 6 8 22 22 20 18 20 20 20
5 7 6 11 8 7 5 3 2 3 2 5 6 10 11 9 7 7 6 4 4 4 5 4 5 4 4 4 5 5 4 4 4 6 5 7 11 25 24 21 21 21 21
11 10 4 4 4 8 6 3 2 3 4 2 5 6 8 8 7 7 5 5 5 4 4 4 5 4 4 4 4 4 4 4 5 6 5 8 9 9 17 25 24 23 23
10 9 5 5 3 7 3 4 5 4 4 5 3 4 5 10 10 4 4 4 5 4 4 4 4 4 3 5 5 5 5 4 6 7 8 7 10 10 8 17 22 21 24
10 6 5 6 5 6 3 2 1 1 4 4 3 6 11 13 9 7 5 2 4 4 4 3 6 5 5 4 5 7 5 6 6 7 9 9 8 10 11 11 12 13 24
10 6 6 7 6 4 3 3 3 3 3 3 3 6 3 1 2 1 1 5 4 1 4 6 4 6 6 5 2 4 6 8 10 7 7 8 10 7 7 11 9 8 10
15 8 8 9 7 6 4 3 4 3 2 4 3 2 2 3 2 2 2 1 2 2 3 3 4 3 5 5 5 1 3 4 8 10 7 7 10 9 9 10 11 12 11
14 12 11 9 8 6 7 3 2 3 4 2 3 3 4 3 3 2 4 2 2 3 4 4 4 4 5 4 9 5 3 5 1 3 9 5 6 7 9 8 12 13 12
16 14 14 13 10 7 6 4 4 3 2 2 4 4 5 6 4 3 3 3 2 3 4 3 3 4 4 7 3 9 8 3 3 3 2 5 6 7 9 6 10 11 12
18 14 13 11 9 7 7 4 4 3 2 2 2 2 3 6 3 3 2 1 4 2 3 4 5 5 4 8 6 3 9 10 6 2 4 3 1 4 6 9 8 7 10
14 13 10 9 7 8 6 5 5 2 2 1 2 3 4 5 5 5 4 2 2 4 4 5 5 5 6 8 7 7 5 4 9 7 6 6 3 4 4 5 4 4 1
Wind_Direction
141 142 137 135 137 128 122 114 113 113 103 95 96 102 102 96 97 102 111 114 116 118 114 111 110 102 105 102 98 97 106 109 108 105 101 101 102 114 122 118 113 113 112
134 138 135 133 135 127 125 121 118 113 104 104 105 105 104 100 100 100 108 125 107 114 115 106 102 106 107 98 100 105 101 101 101 104 103 102 104 130 141 121 115 113 114
130 134 129 129 132 130 129 122 121 112 111 109 109 108 109 111 106 108 113 123 110 111 114 112 114 112 104 98 98 102 109 113 114 123 114 98 96 104 112 116 118 116 115
129 134 130 128 130 132 131 127 121 117 112 114 112 115 119 118 118 111 111 108 116 112 114 117 116 108 101 99 105 109 105 97 89 101 89 122 105 109 116 123 124 124 122
134 131 136 133 132 134 132 131 128 125 122 124 117 115 118 113 108 110 109 109 116 119 109 114 107 109 110 108 98 107 105 114 136 215 266 227 109 124 131 129 129 132 130
124 128 137 135 136 139 137 136 132 131 123 124 127 125 117 114 108 113 115 113 110 108 118 120 113 114 109 97 87 66 72 205 221 182 278 138 123 141 139 138 140 130 132
123 129 136 140 139 141 139 142 141 132 129 124 119 117 122 122 121 124 126 122 122 123 123 117 126 125 125 112 21 3 354 2 323 121 72 122 140 138 142 139 140 140 139
127 131 140 143 143 141 141 144 134 124 123 127 127 126 128 124 126 133 130 134 136 135 134 139 147 144 152 150 311 317 330 20 74 146 151 142 145 138 147 152 149 148 144
128 135 134 135 146 144 149 150 139 137 137 144 139 144 152 143 142 140 137 140 145 153 155 161 175 178 182 203 223 284 304 339 102 237 126 178 155 149 154 157 154 160 152
129 132 143 144 141 148 154 159 153 151 150 149 149 145 147 158 152 148 146 156 154 168 177 179 189 209 209 221 228 250 273 290 52 114 228 179 166 161 163 163 163 161 162
135 147 145 154 161 162 161 176 172 174 171 170 177 180 172 173 173 175 183 175 174 190 191 205 216 222 227 229 241 247 256 247 131 148 156 179 184 169 167 167 174 172 167
148 154 159 165 175 170 166 176 185 189 178 184 195 195 181 206 172 165 199 213 227 231 226 218 223 231 236 222 237 247 232 243 171 173 148 176 182 182 176 173 181 182 177
160 161 169 174 178 173 166 172 191 190 185 199 208 190 185 190 178 177 210 239 211 230 216 240 240 218 211 218 235 216 219 234 187 192 183 183 192 189 183 186 182 187 190
167 169 173 174 170 173 154 177 191 188 198 200 200 187 161 192 196 202 213 204 173 221 238 234 217 218 238 251 225 204 193 230 214 204 203 219 209 197 188 190 190 189 195
157 161 161 168 150 156 154 183 199 202 198 195 187 194 179 191 195 203 219 218 210 200 211 214 204 224 234 239 232 210 228 217 230 190 164 172 234 218 200 195 194 193 198
157 156 135 153 148 145 153 162 205 134 193 189 189 202 197 197 191 190 197 209 221 222 218 203 209 212 230 240 252 232 216 223 227 211 173 201 211 210 210 206 201 202 202
124 87 126 155 151 138 146 143 225 286 180 182 198 201 199 199 195 195 199 196 202 205 217 215 223 221 241 248 252 250 248 263 257 234 192 191 212 215 207 204 207 206 205
132 129 144 56 127 139 156 203 216 259 295 294 217 184 204 216 209 194 190 197 200 193 193 208 216 228 231 234 249 245 240 242 262 270 225 196 200 210 213 212 211 207 207
130 165 189 126 116 156 153 178 213 220 249 252 219 187 40 310 241 204 183 200 201 195 199 195 219 209 223 227 245 237 242 239 250 263 269 223 192 198 201 228 218 209 215
172 185 159 159 161 201 146 181 229 216 262 267 356 80 159 226 241 216 212 279 244 197 195 209 222 218 220 217 216 247 234 241 239 240 250 247 210 199 201 203 210 215 214
163 171 169 171 192 158 167 166 201 221 255 332 252 68 221 120 109 241 133 173 265 10 224 209 223 218 241 224 178 250 257 239 243 233 233 240 242 211 184 200 202 205 215
177 168 168 189 194 186 163 177 184 150 232 259 293 285 287 61 71 88 111 297 353 348 332 279 248 250 242 194 202 241 278 281 239 240 225 221 237 239 227 194 207 199 200
174 177 174 185 198 190 185 160 139 63 91 44 261 235 228 210 244 300 298 256 291 294 279 289 292 270 265 237 213 168 215 233 251 203 227 225 229 224 235 229 208 209 199
174 173 170 180 185 184 177 156 150 145 147 216 206 208 220 225 213 232 270 292 313 292 300 283 301 273 258 263 221 220 226 217 217 305 246 224 218 213 227 243 216 207 203
154 159 156 155 151 156 150 121 135 130 175 323 105 192 244 259 151 72 120 315 299 294 310 297 287 273 271 271 240 203 224 235 247 235 283 272 215 229 218 226 220 210 218
128 128 131 129 141 134 136 133 128 151 157 20 29 17 1 66 81 63 33 323 352 352 313 288 284 291 305 294 249 223 207 191 221 225 244 249 230 275 230 222 246 244 355